Minot, ND

6:27 AM CDT on July 25, 2017 (GMT -0500)
Minot International

Weather History for KMOT - May, 2014

Change the Weather History Date:

Tuesday, May 13, 2014

  Actual Average Record
Temperature  
Mean Temperature 44 °F 54 °F  
Max Temperature 55 °F 66 °F 94 °F (1932)
Min Temperature 33 °F 42 °F 20 °F (1918)
Degree Days  
Heating Degree Days 20    
Cooling Degree Days 0 0  
Month to date cooling degree days 0 0  
Year to date cooling degree days 0 1  
Moisture  
Dew Point 26 °F    
Average Humidity 51    
Maximum Humidity 75    
Minimum Humidity 26    
Precipitation  
Precipitation T in 0.08 in 1.40 in (1974)
Month to date precipitation 1.23 0.91  
Year to date precipitation 3.44 3.80  
Sea Level Pressure  
Sea Level Pressure 30.22 in    
Wind  
Wind Speed 17 mph (WNW)    
Max Wind Speed 31 mph    
Max Gust Speed 40 mph    
Visibility 10 miles    
Events Rain    
T = Trace of Precipitation, MM = Missing Value Source: NWS Daily Summary

Daily Weather History Graph

Daily Weather History Graph

Search for Another Location

Airport or City:

Trip Planner

Search our weather history database for the weather conditions in past years. The results will help you decide how hot, cold, wet, or windy it might be!

Date:

Astronomy

May. 13, 2014 Rise Set
Actual Time 6:08 AM CDT 9:15 PM CDT
Civil Twilight 5:31 AM CDT 9:52 PM CDT
Nautical Twilight 4:43 AM CDT 10:41 PM CDT
Astronomical Twilight 3:43 AM CDT 11:41 PM CDT
Moon 8:13 PM CDT (5/13) 5:33 AM CDT (5/13)
Length of Visible Light 16h 21m
Length of Day
15h 07m
Waxing Gibbous, 99% of the Moon is Illuminated
May 13
Waxing Gibbous
May 14
Full
May 21
Last Quarter
May 28
New
Jun 5
First Quarter

Hourly Weather History & Observations

Time (CDT) Temp. Windchill Dew Point Humidity Pressure Visibility Wind Dir Wind Speed Gust Speed Precip Events Conditions
12:54 AM 37.4 °F 29.8 °F 28.4 °F 70% 30.17 in 10.0 mi West 11.5 mph - N/A   Clear
1:54 AM 39.0 °F 31.8 °F 28.9 °F 67% 30.21 in 10.0 mi WNW 11.5 mph - N/A   Mostly Cloudy
2:54 AM 37.0 °F 28.5 °F 28.9 °F 73% 30.20 in 10.0 mi WNW 13.8 mph - N/A   Clear
3:54 AM 37.0 °F 28.5 °F 28.9 °F 73% 30.20 in 10.0 mi WNW 13.8 mph - N/A   Clear
4:54 AM 36.0 °F 27.1 °F 28.0 °F 73% 30.21 in 10.0 mi WNW 13.8 mph - N/A   Clear
5:54 AM 35.1 °F 25.5 °F 28.0 °F 76% 30.22 in 10.0 mi WNW 15.0 mph - N/A   Clear
6:54 AM 36.0 °F 26.3 °F 28.0 °F 73% 30.23 in 10.0 mi WNW 16.1 mph - N/A   Clear
7:54 AM 39.2 °F 30.2 °F 30.2 °F 70% 30.21 in 10.0 mi WNW 17.3 mph - N/A   Clear
8:54 AM 44.1 °F 36.2 °F 32.0 °F 63% 30.25 in 10.0 mi NW 18.4 mph - N/A   Scattered Clouds
9:54 AM 44.1 °F 35.9 °F 30.0 °F 58% 30.26 in 10.0 mi WNW 19.6 mph 27.6 mph N/A   Overcast
10:54 AM 46.4 °F 38.5 °F 28.4 °F 50% 30.21 in 10.0 mi WNW 21.9 mph 29.9 mph N/A   Mostly Cloudy
11:54 AM 48.9 °F - 23.0 °F 36% 30.24 in 10.0 mi NW 28.8 mph 36.8 mph 0.00 in Rain Light Rain
12:54 PM 51.1 °F - 25.0 °F 36% 30.23 in 10.0 mi NW 19.6 mph 31.1 mph 0.00 in   Mostly Cloudy
1:54 PM 51.1 °F - 23.0 °F 33% 30.23 in 10.0 mi WNW 24.2 mph 34.5 mph 0.00 in   Mostly Cloudy
2:54 PM 51.1 °F - 24.1 °F 35% 30.23 in 10.0 mi WNW 23.0 mph 34.5 mph N/A   Mostly Cloudy
3:54 PM 52.0 °F - 23.0 °F 32% 30.22 in 10.0 mi WNW 26.5 mph 33.4 mph N/A   Overcast
4:54 PM 55.0 °F - 23.0 °F 29% 30.21 in 10.0 mi WNW 24.2 mph 36.8 mph N/A   Mostly Cloudy
5:54 PM 53.1 °F - 19.9 °F 27% 30.21 in 10.0 mi NW 21.9 mph 34.5 mph N/A   Mostly Cloudy
7:54 PM 51.1 °F - 21.0 °F 31% 30.20 in 10.0 mi NW 16.1 mph 26.5 mph N/A   Clear
8:54 PM 48.0 °F - 24.1 °F 39% 30.20 in 10.0 mi NW 12.7 mph - N/A   Mostly Cloudy
9:54 PM 39.0 °F 33.4 °F 26.1 °F 60% 30.23 in 10.0 mi NNW 8.1 mph - N/A   Clear
10:54 PM 37.9 °F 31.5 °F 28.0 °F 68% 30.25 in 10.0 mi NNW 9.2 mph - N/A   Clear
11:54 PM 34.0 °F 28.0 °F 26.1 °F 73% 30.27 in 10.0 mi NW 6.9 mph - N/A   Clear